Location: Gabrielka
(49.2893°N, 15.0659°E)
Time: 14:26:26
(UTC+00:00)

Daily predictions for brighter satellites

Satellite Brightness Start Highest point End
(mag) Time Altitude Azimuth Time Altitude Azimuth Time Altitude Azimuth
Cosmos 1184 Rocket 2.9 19:28:53 10° S 19:31:47 44° E 19:34:41 10° NNE
Cosmos 1503 Rocket 4.3 19:29:02 10° S 19:34:03 48° ESE 19:39:11 10° NNE
Cosmos 1975 4.5 19:31:09 10° NNE 19:34:18 21° ENE 19:37:25 10° ESE
SL-16 R/B 3.9 19:32:51 10° SE 19:35:27 13° E 19:38:04 10° ENE
Cosmos 968 Rocket 4.4 19:30:42 10° SW 19:35:45 54° WNW 19:40:48 10° NNE
Cosmos 405 4.1 19:34:01 10° NNW 19:37:15 42° W 19:40:30 10° SSW
ERS-1 Rocket 3.9 19:33:07 10° SE 19:37:38 34° ENE 19:42:10 10° N
Cosmos 389 Rocket 2.5 19:34:33 10° NNW 19:38:04 89° WSW 19:41:35 10° S
Cosmos 1933 Rocket 3.6 19:36:01 10° N 19:40:31 82° E 19:44:59 10° SSE
EXPRESS MD2 4.4 19:36:42 10° WNW 19:42:53 43° SW 19:46:11 10° SE
CZ-4B R/B 1.5 19:41:10 10° N 19:44:23 73° WNW 19:47:31 10° SSW
Cosmos 1515 3.8 19:41:26 10° SSW 19:45:12 82° W 19:49:00 10° N
SPOT 1/Viking Rocket 3.8 19:41:20 10° S 19:46:29 74° WSW 19:51:40 10° NNW
Helios 1A Rocket 3.4 19:43:02 10° SE 19:46:53 46° ENE 19:50:44 10° N
Meteor 1-27 Rocket 3.9 19:42:12 10° S 19:48:00 89° W 19:53:57 10° NNE
Cosmos 2219 4.3 19:47:01 10° NW 19:52:13 39° WSW 19:57:22 10° S
Cosmos 2034 Rocket 4.1 19:46:40 10° S 19:52:51 63° E 19:59:09 10° NNE
Cosmos 2292 Rocket 4.0 19:50:20 10° NNE 19:52:58 25° ENE 19:55:06 12° SE
SJ 16-02 1.7 19:50:40 10° S 19:54:49 45° ESE 19:59:00 10° NNE
Cosmos 2278 4.1 19:50:05 10° S 19:55:21 42° ESE 20:00:40 10° NE
Cosmos 1340 2.9 19:51:52 10° SSW 19:55:34 73° WNW 19:59:20 10° N
Cosmos 2082 4.0 19:53:38 10° NNW 19:59:13 63° WSW 20:04:44 10° SSE
Cosmos 482 Debris 3.8 19:59:31 10° WNW 20:02:13 67° SSW 20:05:53 12° ESE
Cosmos 2263 Rocket 2.2 19:56:49 10° NNW 20:02:27 76° ENE 20:07:29 13° SE
Cosmos 1743 3.8 20:01:46 10° NNW 20:05:22 42° W 20:08:56 10° SSW
Ariane Rocket 3.7 20:01:28 10° S 20:06:25 53° W 20:11:25 10° NNW
NOSS 2-1 (D) 4.3 20:09:53 16° SE 20:10:53 18° ESE 20:13:09 10° ENE
SPOT 5 3.1 20:06:30 12° SSE 20:11:26 72° ENE 20:16:32 10° N
BREEZE-M DEB (TANK) 1.6 20:10:02 10° W 20:12:29 83° N 20:14:46 10° E
Terra 2.2 20:09:04 14° SE 20:13:02 51° ENE 20:17:40 10° N
Resurs 01 Rocket 3.2 20:11:25 10° SSW 20:15:18 31° W 20:19:15 10° NNW
Cosmos 1346 Rocket 3.8 20:15:00 16° SE 20:17:33 30° E 20:21:06 10° NNE
Aureole 1 Rocket 3.8 20:14:58 10° SW 20:17:51 35° WNW 20:20:40 10° N
Cosmos 2227 Rocket 4.2 20:15:37 10° NW 20:19:53 22° W 20:24:08 10° SSW
Cosmos 921 Rocket 4.0 20:16:59 10° NNW 20:21:18 45° WSW 20:25:33 10° S
Cosmos 1869 Rocket 3.9 20:26:04 10° NNW 20:30:32 64° W 20:34:33 12° S
Cosmos 1980 Rocket 2.5 20:25:14 10° SW 20:30:52 74° WNW 20:36:34 10° NNE
SL-24 R/B - RUBIN 2 3.5 20:27:04 10° NW 20:31:27 89° NE 20:34:40 19° SE
Cosmos 2228 Rocket 3.2 20:29:24 10° S 20:33:57 86° W 20:38:32 10° N
Cosmos 1378 3.0 20:34:31 15° S 20:37:30 81° E 20:41:10 10° NNE
Cosmos 2344 3.6 20:31:57 10° SW 20:39:23 81° NW 20:47:18 10° NE
Cosmos 2322 Rocket 3.0 20:36:17 18° SSE 20:39:28 30° ESE 20:44:18 10° NE
Cosmos 1777 Rocket 4.0 20:34:45 10° SSW 20:39:58 86° ESE 20:45:15 10° NNE
ISS -3.3 20:36:44 10° WNW 20:39:58 45° SSW 20:41:27 26° SSE
Spot 2 Rocket 3.8 20:35:42 14° S 20:40:03 64° WSW 20:45:06 10° NNW
Cosmos 2369 4.4 20:35:05 10° SW 20:40:38 57° NW 20:46:15 10° NNE
Cosmos 1844 Rocket 3.6 20:36:42 10° NNW 20:41:58 40° NE 20:46:18 14° ESE
ATLAS 2AS CENTAUR R/B 2.9 20:36:16 10° SW 20:44:05 84° SE 20:51:38 10° NE
Cosmos 2333 Rocket 4.1 20:43:20 11° ESE 20:44:40 12° E 20:46:53 10° ENE
Okean 1 4.4 20:41:31 10° SSW 20:45:22 45° WNW 20:49:15 10° N
Meteor 2-4 Rocket 3.7 20:40:21 12° S 20:45:48 76° E 20:51:26 10° NNE
Cosmos 1092 Rocket 4.1 20:40:38 10° NNW 20:46:49 73° W 20:52:05 14° S
RESURS DK-1 2.6 20:45:33 10° SW 20:49:39 71° WNW 20:53:48 10° NNE
SL-4 R/B 4.5 20:48:43 10° WSW 20:50:06 11° SW 20:51:28 10° SSW
Cosmos 1805 4.1 20:47:47 10° N 20:51:27 37° ENE 20:53:18 23° SE
USA 267 4.1 20:46:36 10° E 20:52:53 51° NNE 20:59:10 10° WNW
Cosmos 1634 Rocket 4.0 20:49:58 12° S 20:55:48 88° E 21:02:01 10° N
ARIANE 5 R/B 2.7 20:53:39 21° S 20:56:36 78° WSW 21:01:08 10° NNW
Cosmos 1707 Rocket 3.5 20:54:12 17° S 20:57:39 89° W 21:02:06 10° N
ATLAS CENTAUR R/B 3.0 20:53:15 10° NNW 20:57:46 35° NE 21:01:51 12° ESE
Cosmos 44 Rocket 3.6 20:54:14 10° NW 20:58:48 51° WSW 21:01:28 23° S
Cosmos 2219 Rocket 4.0 21:03:06 13° ESE 21:04:15 13° E 21:06:50 10° ENE
Meteor 2-15 Rocket 4.5 21:00:05 19° S 21:04:31 68° E 21:10:34 10° NNE
Cosmos 1733 3.5 21:01:16 10° N 21:04:58 52° ENE 21:06:32 30° SE
Cosmos 1844 4.3 20:59:53 10° NNW 21:05:32 50° NE 21:09:35 19° ESE
Cosmos 1766 4.5 21:02:57 10° N 21:06:29 30° ENE 21:08:07 22° ESE
ATLAS 3B R/B 2.9 21:00:46 10° NW 21:08:07 79° SW 21:13:24 22° SSE
NOSS 2-1 (E) 2.7 21:08:10 23° SSW 21:09:57 64° SE 21:13:12 10° NE
CSL-04 DEB 4.3 21:06:30 10° NNE 21:10:30 79° ESE 21:12:49 24° S
Cosmos 1975 3.9 21:07:02 10° NNW 21:10:51 39° W 21:13:33 17° SSW
Cosmos 2026 Rocket 4.5 21:06:00 10° NNW 21:12:00 56° W 21:17:00 15° SSW
USA 81 4.2 21:09:00 16° SSW 21:13:18 71° W 21:18:36 10° N
Cosmos 1655 Rocket 4.4 21:09:22 10° N 21:15:30 53° ENE 21:19:13 24° SE
ERS-1 Rocket 4.1 21:12:32 14° SSW 21:16:23 37° W 21:21:05 10° NNW
Meteor 1-4 Rocket 2.4 21:14:54 10° N 21:18:23 83° ENE 21:19:36 39° SSE
NOSS 3-1 (C) 4.5 21:11:36 10° NW 21:18:35 56° NE 21:26:42 11° ESE
SL-16 R/B 2.1 21:13:28 13° SSW 21:18:35 78° ESE 21:24:17 10° NNE
CZ-4C R/B 3.7 21:13:32 10° NW 21:20:01 46° NE 21:27:46 10° ESE
Cosmos 2237 4.3 21:16:27 21° S 21:20:08 57° ESE 21:25:45 10° NE
GENESIS II 4.3 21:21:16 10° SW 21:25:07 76° NW 21:29:05 10° NE
Meteor 2-10 4.0 21:19:51 10° N 21:25:09 71° ENE 21:27:49 29° SSE
Cosmos 1733 Rocket 3.7 21:20:52 10° NNW 21:25:11 50° W 21:27:44 23° SSW
Geosat 4.1 21:28:35 28° S 21:31:10 64° WSW 21:36:12 10° NW
SAR-Lupe-4 3.8 21:27:57 10° N 21:31:32 65° WNW 21:33:22 26° SSW
OE (NEXTSAT) 4.5 21:29:08 10° WSW 21:32:08 46° SSW 21:32:08 46° SSW
ERS-2 4.0 21:30:02 10° NE 21:32:21 16° E 21:32:29 16° E
SJ 16-02 3.6 21:30:02 10° WSW 21:33:35 24° NW 21:37:10 10° N
Meteor 1-15 Rocket 4.4 21:29:16 10° N 21:34:54 65° ENE 21:37:56 28° SSE
Cosmos 1356 3.2 21:35:10 45° SSW 21:36:04 88° W 21:39:24 10° NNE
Cosmos 1908 Rocket 3.5 21:32:31 10° N 21:36:53 81° E 21:38:37 36° SSE
COSMOS 2428 4.3 21:35:55 17° ESE 21:37:10 18° E 21:40:51 10° ENE
Cosmos 923 Rocket 4.1 21:34:11 10° NNW 21:39:31 77° WSW 21:42:10 31° S
Cosmos 1862 Rocket 4.2 21:37:31 19° SSW 21:40:31 53° WNW 21:44:56 10° N
Cosmos 1470 4.0 21:39:04 10° N 21:42:32 30° ENE 21:43:46 25° ESE
Cosmos 2360 Rocket 2.3 21:40:43 28° S 21:43:39 60° ESE 21:49:13 10° NE
Cosmos 1726 2.1 21:40:32 10° N 21:44:12 67° E 21:45:09 45° SE
Cosmos 1937 Rocket 3.9 21:42:39 31° SSE 21:44:40 47° ESE 21:49:43 10° NNE
Cosmos 2242 Rocket 4.0 21:43:56 34° SE 21:45:30 49° E 21:49:55 10° NNE
Cosmos 2263 Rocket 4.1 21:41:52 10° NW 21:45:44 19° W 21:49:11 11° SW
ALOS 2 3.4 21:44:37 26° ESE 21:46:31 41° ENE 21:50:39 10° N
Meteor 1-13 Rocket 4.2 21:44:30 25° SSW 21:47:50 88° WNW 21:53:24 10° NNE
Cosmos 2266 Rocket 3.9 21:41:40 10° N 21:47:58 89° E 21:51:20 29° S
NOSS 2-1 (C) 3.9 21:47:20 10° WSW 21:50:26 44° NW 21:53:38 10° NNE
Terra 3.7 21:47:57 12° SW 21:51:05 22° W 21:54:48 10° NW
Cosmos 1441 Rocket 4.1 21:51:04 23° SW 21:52:59 43° WNW 21:56:34 10° N
USA 215 3.4 21:52:42 10° ENE 21:59:05 52° SE 22:03:43 19° SSW
ATLAS 5 CENTAUR R/B 4.4 21:38:28 10° WNW 21:59:57 62° NNE 22:05:11 10° ESE
Cosmos 2112 Rocket 4.0 21:54:46 10° NNW 22:00:07 79° WSW 22:02:27 34° SSE
NOSS 2-1 (D) 4.4 21:57:57 10° WSW 22:00:57 36° NW 22:04:04 10° NNE
Cosmos 1680 Rocket 3.6 21:55:53 10° NNW 22:01:10 67° WSW 22:03:26 34° S
Cosmos 990 Rocket 4.2 21:57:54 19° SW 22:01:39 69° WNW 22:06:54 10° NNE
Cosmos 2278 Rocket 3.8 21:56:48 10° NNW 22:01:42 29° NE 22:06:35 10° ESE
Cosmos 1626 4.3 22:03:15 14° E 22:03:40 14° E 22:05:40 10° NE
Cosmos 1842 3.4 22:03:47 46° SE 22:04:35 57° E 22:08:25 10° NNE
Meteor 1-22 Rocket 4.4 22:01:57 10° N 22:07:54 82° ENE 22:10:54 32° SSE
ADEOS Rocket 3.4 22:05:31 25° SE 22:08:41 53° ENE 22:14:35 10° N
Spot 4 3.8 22:07:13 37° S 22:09:08 79° WSW 22:13:57 10° NNW
Cosmos 1818 3.6 22:04:27 10° NW 22:09:53 68° SW 22:12:08 35° SSE
Iridium 4 Rocket 3.4 22:07:09 10° N 22:11:40 67° W 22:13:44 34° SSW
Sich 1 Rocket 4.4 22:10:45 10° N 22:14:56 41° ENE 22:16:32 30° ESE
Cosmos 1898 Rocket 3.6 22:11:50 25° SSW 22:14:59 77° WNW 22:20:20 10° NNE
Cosmos 858 Rocket 4.4 22:13:36 34° S 22:15:56 76° ESE 22:21:14 10° NNE
Cosmos 1674 4.2 22:16:06 23° E 22:16:33 23° E 22:19:35 10° NE
Cosmos 1900 4.3 22:15:19 29° SSW 22:17:58 83° SE 22:23:08 10° NE
Okean 1-7 3.5 22:17:25 30° SW 22:19:20 55° WNW 22:23:38 10° N
Cosmos 1758 4.2 22:18:08 10° N 22:21:55 40° ENE 22:23:04 32° ESE
Cosmos 2322 Rocket 2.9 22:18:01 11° SW 22:23:16 51° NW 22:28:45 10° NNE
Cosmos 1844 Rocket 3.4 22:20:41 10° NW 22:25:53 41° WSW 22:27:57 29° SSW
Okean 3 3.8 22:25:02 36° SW 22:26:34 60° WNW 22:30:47 10° N
Cosmos 2322 3.9 22:25:29 35° S 22:27:39 55° ESE 22:33:15 10° NE
Cosmos 2333 Rocket 2.1 22:25:18 33° SSW 22:27:54 74° ESE 22:33:35 10° NNE
H-2A R/B 3.4 22:27:00 10° NNE 22:31:07 82° WNW 22:32:21 44° SSW
SL-08 ROCKET BODY 4.3 22:26:06 10° N 22:32:01 83° E 22:34:42 34° SSE
Cosmos 1461 2.9 22:28:17 10° NW 22:32:26 80° NE 22:33:55 40° SE
BREEZE-M DEB (TANK) 4.4 22:31:00 10° WSW 22:31:52 16° WSW 22:31:52 16° WSW
USA 267 3.2 22:29:45 13° ESE 22:35:40 88° SSW 22:42:15 10° WNW
ATLAS 2AS CENTAUR R/B 4.3 22:28:40 10° W 22:35:49 39° NNW 22:42:40 10° NE
USA 229 DEB 4.2 22:28:35 10° NW 22:35:49 68° NE 22:43:19 11° SE
USA 229 4.2 22:28:41 10° NW 22:35:55 68° NE 22:43:27 11° SE
ATLAS CENTAUR R/B 2.0 22:32:04 10° NW 22:36:46 49° WSW 22:37:50 41° SSW
ASTEX 1 4.1 22:32:10 10° NNE 22:36:49 41° E 22:38:32 31° SE
NOSS 2-2 (E) 4.4 22:39:47 10° NW 22:44:41 75° NE 22:50:00 17° SE
Cosmos 1244 Rocket 4.5 22:38:48 10° N 22:45:10 89° E 22:48:12 33° S
Cosmos 1553 Rocket 4.2 22:43:37 32° SSE 22:46:23 60° E 22:52:29 10° NNE
Cosmos 1674 Rocket 4.5 22:46:04 31° ESE 22:47:09 36° E 22:51:07 10° NNE
Cosmos 2219 Rocket 2.1 22:44:47 35° SSW 22:47:15 79° ESE 22:52:53 10° NNE
Nadezhda 2 Rocket 4.4 22:41:48 10° N 22:48:00 85° W 22:50:51 34° S
Cosmos 2221 Rocket 3.8 22:51:05 43° SSE 22:52:15 59° E 22:56:37 10° NNE
Cosmos 372 Rocket 4.1 22:51:17 30° SW 22:53:48 68° WNW 22:58:59 10° NNE
Cosmos 494 Rocket 4.1 22:49:16 10° NNW 22:54:24 68° ENE 22:56:50 31° SE
Cosmos 1048 Rocket 4.0 22:49:37 10° NNW 22:54:49 75° ENE 22:57:08 33° SE
ATLAS 3B R/B 4.4 22:52:45 10° WNW 22:57:55 21° WSW 23:00:38 17° SW
Cosmos 1707 2.9 23:00:36 48° SW 23:01:28 64° WNW 23:05:19 10° N
Cosmos 1378 Rocket 4.1 23:00:50 38° SE 23:02:03 49° E 23:06:21 10° NNE
NOSS 3-1 (A) 4.0 22:55:08 10° NW 23:02:30 81° SW 23:08:57 20° SSE
SL-16 R/B 4.2 22:58:43 10° W 23:03:20 25° NW 23:07:58 10° NNE
USA 308 4.3 23:05:02 24° ESE 23:05:02 24° ESE 23:07:40 10° E
Cosmos 1125 Rocket 4.2 23:03:17 32° SE 23:04:55 40° ESE 23:09:46 10° NE
ERS-2 2.9 23:02:29 10° N 23:05:56 43° WNW 23:06:52 35° WSW
Okean 2 3.3 23:06:39 52° SSW 23:07:36 85° W 23:11:44 10° N
Cosmos 1300 4.2 23:04:17 10° N 23:07:37 28° ENE 23:09:06 22° ESE
CZ-4C R/B 3.0 23:01:56 10° NW 23:09:05 68° SW 23:14:17 25° SSE
NOSS 3-1 (C) 4.3 23:02:28 10° NW 23:09:41 52° WSW 23:14:03 29° S
USA 290 2.0 23:10:46 82° ESE 23:10:47 82° ESE 23:14:01 10° NNE
Cosmos 1238 Rocket 2.0 23:09:03 10° N 23:11:57 83° NW 23:11:57 83° NW
Gblst 52 Del rocket 4.3 23:10:24 10° WSW 23:16:40 82° NNW 23:22:19 10° ENE
Cosmos 2237 Rocket 3.0 23:14:56 29° SSE 23:16:58 39° ESE 23:22:14 10° NE
KORONAS-FOTON 3.9 23:16:49 52° SW 23:17:33 67° WNW 23:21:23 10° N
Cosmos 1470 4.2 23:15:15 10° NW 23:18:23 24° W 23:19:01 23° WSW
SL-14 R/B 4.0 23:18:00 35° SE 23:18:50 41° E 23:22:29 10° NNE
NOSS 2-2 (D) 4.2 23:15:45 10° NW 23:20:40 83° SW 23:25:34 20° SE
COSMOS 2428 2.7 23:17:53 32° SSW 23:20:41 83° WNW 23:26:25 10° NNE
ERBS 4.3 23:23:11 16° E 23:23:11 16° E 23:24:11 10° E
Cosmos 1745 Rocket 3.9 23:15:35 10° N 23:21:51 86° ENE 23:25:01 31° S
PSLV R/B 3.6 23:17:49 10° NNE 23:22:13 88° WNW 23:23:40 43° SSW
Cosmos 2151 Rocket 3.7 23:18:25 10° NNW 23:22:46 61° W 23:23:57 43° SSW
Resurs 1-4 Rocket 4.2 23:19:28 10° NE 23:22:49 17° E 23:25:56 11° SE
ALOS 2 4.0 23:22:00 22° WSW 23:23:00 24° W 23:26:36 10° NW
Cosmos 1242 Rocket 3.4 23:22:33 10° NNW 23:25:52 35° W 23:26:07 34° WSW
USA 305 3.3 23:26:44 42° SE 23:26:49 42° SE 23:30:46 10° ENE
Okean 2 Rocket 3.6 23:22:27 10° NNW 23:26:50 49° W 23:28:05 38° SW
Cosmos 2360 Rocket 3.8 23:23:06 10° WSW 23:28:01 30° NW 23:33:00 10° NNE
Cosmos 405 Rocket 2.5 23:28:20 58° S 23:29:01 87° E 23:32:51 10° NNE
Cosmos 1943 Rocket 3.6 23:25:11 10° NNW 23:30:26 37° NE 23:35:40 10° ESE
Cosmos 1437 Rocket 2.5 23:29:05 10° NNW 23:32:51 81° W 23:33:33 57° S
Nimbus 7 Rocket 4.4 23:27:20 10° NNE 23:33:14 76° WNW 23:36:12 31° SSW
Cosmos 1908 3.6 23:30:36 10° NNW 23:34:15 47° W 23:34:48 43° WSW
ADEOS II 4.5 23:34:42 10° ENE 23:36:35 12° E 23:38:28 10° ESE
Cosmos 2298 Rocket 4.0 23:34:33 36° S 23:36:42 75° ESE 23:42:01 10° NNE
Cosmos 1867 3.7 23:33:44 27° SW 23:36:49 75° NW 23:42:20 10° NE
Cosmos 1626 2.6 23:37:36 40° WSW 23:38:20 47° WNW 23:41:55 10° N
GP-B 3.8 23:35:51 10° NNE 23:40:09 46° E 23:42:03 28° SE
Thor Agena Rocket 4.4 23:36:12 10° NNE 23:41:11 40° E 23:43:43 25° SSE
USA 215 3.5 23:35:46 10° ENE 23:42:16 69° NNW 23:48:46 10° WSW
Cosmos 1953 2.3 23:39:47 10° NNW 23:43:48 70° W 23:44:46 48° SSW
Cosmos 2278 Rocket 2.2 23:40:37 10° NNW 23:46:14 64° WSW 23:48:51 32° S
EO 1 Delta rocket 4.3 23:44:23 10° NNE 23:48:59 56° E 23:51:24 29° SSE
Cosmos 1674 4.0 23:50:45 25° WSW 23:51:48 29° WNW 23:55:09 10° N
ADEOS Rocket 4.1 23:52:27 22° SW 23:54:38 28° W 23:59:41 10° NNW
